Branson, MO

3:20 PM CST on November 22, 2017 (GMT -0600)
Branson

Weather History for KBBG - January, 2013

Change the Weather History Date:

Friday, January 11, 2013

  Actual Average (KHRO) Record (KHRO)
Temperature  
Mean Temperature 54 °F -  
Max Temperature 66 °F 40 °F 75 °F (1960)
Min Temperature 42 °F 20 °F -8 °F (1962)
Degree Days  
Heating Degree Days 11    
Growing Degree Days 4 (Base 50)    
Moisture  
Dew Point 44 °F    
Average Humidity 73    
Maximum Humidity 93    
Minimum Humidity 37    
Precipitation  
Precipitation 0.00 in - - ()
Sea Level Pressure  
Sea Level Pressure 29.85 in    
Wind  
Wind Speed 7 mph (South)    
Max Wind Speed 14 mph    
Max Gust Speed 23 mph    
Visibility 10 miles    
Events      
Averages and records for this station are not official NWS values.
T = Trace of Precipitation, MM = Missing Value Source: NWS Daily Summary

Daily Weather History Graph

Daily Weather History Graph

Search for Another Location

Airport or City:

Trip Planner

Search our weather history database for the weather conditions in past years. The results will help you decide how hot, cold, wet, or windy it might be!

Date:

Astronomy

Jan. 11, 2013 Rise Set
Actual Time 7:24 AM CST 5:17 PM CST
Civil Twilight 6:56 AM CST 5:45 PM CST
Nautical Twilight 6:24 AM CST 6:17 PM CST
Astronomical Twilight 5:53 AM CST 6:48 PM CST
Moon 6:59 AM CST (1/11) 5:34 PM CST (1/11)
Length of Visible Light 10h 49m
Length of Day
9h 52m
Waning Crescent, 0% of the Moon is Illuminated
Jan 11
Waning Crescent
Jan 11
New
Jan 18
First Quarter
Jan 26
Full
Feb 3
Last Quarter

Hourly Weather History & Observations

Time (CST) Temp. Windchill Dew Point Humidity Pressure Visibility Wind Dir Wind Speed Gust Speed Precip Events Conditions
12:15 AM 50.0 °F - 46.4 °F 87% 29.87 in 10.0 mi SW 4.6 mph - N/A   Overcast
12:35 AM 50.0 °F - 44.6 °F 82% 29.87 in 10.0 mi SW 8.1 mph - N/A   Overcast
12:55 AM 48.2 °F - 44.6 °F 87% 29.87 in 10.0 mi SW 6.9 mph - N/A   Overcast
1:15 AM 48.2 °F - 44.6 °F 87% 29.88 in 10.0 mi SW 6.9 mph - N/A   Scattered Clouds
1:35 AM 48.2 °F - 44.6 °F 87% 29.89 in 10.0 mi SW 8.1 mph - N/A   Mostly Cloudy
1:55 AM 48.2 °F - 44.6 °F 87% 29.88 in 10.0 mi SW 8.1 mph - N/A   Overcast
2:15 AM 48.2 °F - 44.6 °F 87% 29.90 in 10.0 mi SW 8.1 mph - N/A   Overcast
2:35 AM 48.2 °F - 44.6 °F 87% 29.89 in 10.0 mi SW 6.9 mph - N/A   Overcast
2:55 AM 48.2 °F - 44.6 °F 87% 29.90 in 10.0 mi SW 8.1 mph - N/A   Overcast
3:15 AM 48.2 °F - 44.6 °F 87% 29.89 in 10.0 mi SW 8.1 mph - N/A   Overcast
3:35 AM 48.2 °F - 44.6 °F 87% 29.89 in 10.0 mi SW 6.9 mph - N/A   Overcast
3:55 AM 48.2 °F - 44.6 °F 87% 29.89 in 10.0 mi SW 5.8 mph - N/A   Overcast
4:15 AM 48.2 °F - 44.6 °F 87% 29.87 in 10.0 mi SSW 4.6 mph - N/A   Mostly Cloudy
4:55 AM 46.4 °F 45.2 °F 42.8 °F 87% 29.86 in 10.0 mi SSW 3.5 mph - N/A   Clear
5:15 AM 46.4 °F 44.3 °F 42.8 °F 87% 29.87 in 10.0 mi SW 4.6 mph - N/A   Clear
5:35 AM 46.4 °F 43.5 °F 42.8 °F 87% 29.87 in 10.0 mi SSW 5.8 mph - N/A   Clear
6:50 AM 42.8 °F 39.3 °F 41.0 °F 93% 29.88 in 10.0 mi SE 5.8 mph - N/A   Mostly Cloudy
7:55 AM 44.6 °F 40.2 °F 42.8 °F 93% 29.88 in 10.0 mi SE 8.1 mph - N/A   Mostly Cloudy
8:45 AM 48.2 °F - 44.6 °F 87% 29.88 in 10.0 mi South 6.9 mph - N/A   Mostly Cloudy
9:50 AM 51.8 °F - 44.6 °F 76% 29.89 in 10.0 mi SSE 8.1 mph - N/A   Mostly Cloudy
10:45 AM 55.4 °F - 44.6 °F 67% 29.88 in 10.0 mi SSE 8.1 mph - N/A   Mostly Cloudy
11:45 AM 59.0 °F - 42.8 °F 55% 29.85 in 10.0 mi SSW 6.9 mph 18.4 mph N/A   Mostly Cloudy
12:57 PM 62.6 °F - 41.0 °F 45% 29.82 in 10.0 mi SSW 10.4 mph 19.6 mph N/A   Mostly Cloudy
2:47 PM 66.2 °F - 39.2 °F 37% 29.80 in 10.0 mi South 13.8 mph 23.0 mph N/A   Mostly Cloudy
3:45 PM 66.2 °F - 41.0 °F 40% 29.79 in 10.0 mi SSE 11.5 mph - N/A   Mostly Cloudy
4:45 PM 60.8 °F - 42.8 °F 52% 29.80 in 10.0 mi SSE 11.5 mph 16.1 mph N/A   Mostly Cloudy
5:53 PM 57.2 °F - 42.8 °F 59% 29.80 in 10.0 mi SSE 12.7 mph - N/A   Mostly Cloudy
6:51 PM 57.2 °F - 41.0 °F 55% 29.81 in 10.0 mi SSE 9.2 mph - N/A   Scattered Clouds
7:53 PM 55.4 °F - 42.8 °F 63% 29.82 in 10.0 mi SSE 12.7 mph 20.7 mph N/A   Scattered Clouds
7:55 PM 55.4 °F - 42.8 °F 63% 29.82 in 10.0 mi SSE 11.5 mph 17.3 mph N/A   Clear
8:15 PM 55.4 °F - 42.8 °F 63% 29.82 in 10.0 mi South 10.4 mph - N/A   Clear
8:35 PM 55.4 °F - 42.8 °F 63% 29.83 in 10.0 mi South 9.2 mph - N/A   Clear
8:50 PM 55.4 °F - 42.8 °F 63% 29.83 in 10.0 mi South 9.2 mph 16.1 mph N/A   Scattered Clouds
8:55 PM 55.4 °F - 42.8 °F 63% 29.83 in 10.0 mi SSE 9.2 mph 16.1 mph N/A   Clear
9:15 PM 55.4 °F - 44.6 °F 67% 29.83 in 10.0 mi SSE 9.2 mph - N/A   Clear
9:35 PM 55.4 °F - 44.6 °F 67% 29.84 in 10.0 mi SSE 6.9 mph - N/A   Clear
9:55 PM 55.4 °F - 44.6 °F 67% 29.84 in 10.0 mi SSE 8.1 mph - N/A   Clear
10:15 PM 55.4 °F - 44.6 °F 67% 29.84 in 10.0 mi SSE 9.2 mph - N/A   Clear
10:35 PM 55.4 °F - 44.6 °F 67% 29.85 in 10.0 mi SSE 5.8 mph - N/A   Clear
11:15 PM 55.4 °F - 46.4 °F 72% 29.85 in 10.0 mi South 5.8 mph - N/A   Clear
11:35 PM 53.6 °F - 46.4 °F 77% 29.85 in 10.0 mi SSE 4.6 mph - N/A   Clear
11:55 PM 53.6 °F - 46.4 °F 77% 29.85 in 10.0 mi South 5.8 mph - N/A   Clear